User: anonymous   Login
Location: Aurora Center
(43.5271°N, 98.5894°W)
Time: 09:14:21
(UTC-05:00)
Language:

Courier 1B - Orbit

View from above orbital plane
View from above orbital plane
View from above satellite
View from above satellite

Ground track
Ground track

The orbit data is extracted from the following two-line orbital elements,

1 00058U 60013A   24195.92253784  .00000116  00000-0  45196-4 0  9991
2 00058  28.3268 108.0925 0164949 144.5452 216.6181 13.46380097139219
Epoch (UTC): 13 July 2024 22:08:27
Eccentricity: 0.0164949
inclination: 28.3268°
perigee height: 962 km
apogee height: 1209 km
right ascension of ascending node: 108.0925°
argument of perigee: 144.5452°
revolutions per day: 13.46380097
mean anomaly at epoch: 216.6181°
orbit number at epoch: 13921

The dashed part of the orbit path shows where the satellite is in the earth's shadow,  

DLR